Location: Medlow Airstrip Trail, Medlow Bath NSW 2780, Australia
(33.6682°S, 150.3233°E)
Time: 19:25:48
(UTC+11:00)

Explorer 11/Cluster Stage 4 - Pass Details

Date: 01 October 2019
Orbit: 467 x 1259 km, 28.8° (Epoch: 14 October)

Event Time Altitude Azimuth Distance (km) Brightness Sun altitude
Rises 07:59:06 0° 279° (W) 2,549 8.7 28.5°
Reaches altitude 10° 08:01:14 10° 286° (WNW) 1,717 8.0 28.9°
Maximum altitude 08:04:55 42° 358° (N) 804 7.2 29.6°
Drops below altitude 10° 08:09:16 10° 68° (ENE) 2,019 10.3 30.5°
Sets 08:11:59 0° 75° (ENE) 3,064 10.8 31.0°
